Home > Time Zones > World Clock > Weather > U.S.A. > Nome > Past weeks

Flag for U.S.A. Weather past 2 weeks in Nome, Alaska, U.S.A.

Now
31 °F

Clear.


Feels Like: 26 °F
Forecast: 24 / 38 °F
Wind: 5 mph from Northeast

Location: Nome Airport

Current Time: Apr 28, 2015 at 3:12:20 AM

Latest Report: Apr 28, 2015 at 1:53 AM


Visibility: 10 mi

Pressure: 29.69 "Hg

Humidity: 76%

Dew point: 24 °F

Location of NomeLocation

Historic Weather in Nome — Graph

°F

Nome temperature yesterday

Maximum temperature yesterday: 39 °F (at 5:53 PM)
Minimum temperature yesterday: 24 °F (at 6:53 AM)
Average temperature yesterday: 32 °F

Past Weeks' High & Low Weather Summary

 TemperatureHumidityPressure
High43 °F (Apr 25, 1:53 PM)100% (Apr 19, 10:53 AM)29.93 "Hg (Apr 19, 10:53 AM)
Low-6 °F (Apr 15, 7:53 AM)57% (Apr 17, 1:53 PM)29.14 "Hg (Apr 19, 9:53 AM)
Average22 °F84%29.68 "Hg
* Reported Apr 13 1:53 AM — Apr 28 1:53 AM, Nome, Weather by CustomWeather, © 2015

Note: Actual official high and low records may vary slightly from our data, if they occured in-between our weather recording intervals... More about our weather records

Advertising

Nome weather history for previous 24 hours

 ConditionsComfort  
Time TempWeatherWind HumidityBarometerVisibility
1:53 AM
Tue, Apr 28
31 °FClear.5 mph76%29.69 "Hg10 mi
12:53 AM33 °FClear.5 mph70%29.70 "Hg10 mi
11:53 PM
Mon, Apr 27
33 °FSunny.5 mph75%29.70 "Hg10 mi
10:53 PM35 °FSunny.9 mph67%29.69 "Hg10 mi
9:53 PM37 °FSunny.7 mph65%29.70 "Hg10 mi
8:53 PM39 °FSunny.6 mph62%29.72 "Hg10 mi
7:53 PM38 °FSunny.No wind70%29.73 "Hg10 mi
6:53 PM39 °FSunny.3 mph60%29.74 "Hg10 mi
5:53 PM39 °FSunny.5 mph65%29.75 "Hg10 mi
4:53 PM38 °FSunny.6 mph63%29.75 "Hg10 mi
3:53 PM37 °FSunny.8 mph65%29.76 "Hg10 mi
2:53 PM35 °FScattered clouds.8 mph72%29.76 "Hg10 mi
1:53 PM36 °FScattered clouds.6 mph64%29.77 "Hg10 mi
12:53 PM32 °FScattered clouds.5 mph69%29.79 "Hg10 mi
11:53 AM29 °FScattered clouds.3 mph82%29.78 "Hg10 mi
10:53 AM29 °FScattered clouds.No wind72%29.78 "Hg10 mi
9:53 AM32 °FScattered clouds.No wind73%29.78 "Hg10 mi
8:53 AM29 °FSunny.3 mph75%29.78 "Hg10 mi
7:53 AM26 °FPassing clouds.No wind92%29.79 "Hg10 mi
6:53 AM24 °FClear.No wind96%29.80 "Hg10 mi
5:53 AM25 °FPassing clouds.No wind92%29.80 "Hg10 mi
4:53 AM25 °FClear.No wind88%29.78 "Hg10 mi
3:53 AM25 °FClear.No wind92%29.80 "Hg10 mi
Weather by CustomWeather, © 2015

See weather overviewHow to use our weather pages